Location: Recife
(8.0585°S, 34.8848°W)
Time: 10:15:36
(UTC-03:00)

N. Korean satellite - Visible Passes

Search period start: 03 December 2022 00:00
Search period end: 13 December 2022 00:00
Orbit: 421 x 453 km, 97.3° (Epoch: 02 December)

Date Brightness Start Highest point End Pass type
(mag) Time Alt. Az. Time Alt. Az. Time Alt. Az.
04 Dec 8.2 03:50:30 10° NE 03:53:31 34° ESE 03:56:33 10° SSE visible
06 Dec 6.7 04:04:53 10° NNE 04:08:09 67° E 04:11:25 10° S visible
07 Dec 9.7 03:27:41 10° ENE 03:29:20 13° ESE 03:30:57 10° SE visible
08 Dec 6.3 04:19:24 10° N 04:22:38 62° W 04:25:53 10° SSW visible
09 Dec 9.0 03:41:06 10° NE 03:43:43 22° ESE 03:46:21 10° SSE visible
11 Dec 7.8 03:54:54 10° NNE 03:57:59 40° E 04:01:04 10° S visible
